$Date,$Time,DM0201B,DM0203B,DM0205B,DM0207B,DM0209B
12/08/98,00:00:01,0,0,0,576,0
12/08/98,00:05:01,376,161,-10,567,951
12/08/98,00:10:01,330,161,-10,581,951
12/08/98,00:15:01,442,163,-10,577,951
12/08/98,00:20:01,379,161,-10,535,951
12/08/98,00:25:01,371,159,-10,584,951
12/08/98,00:30:01,384,159,-10,611,951
12/08/98,00:35:01,344,158,-10,597,951
12/08/98,00:40:01,346,166,-10,593,951
12/08/98,00:45:01,364,167,-10,587,951
12/08/98,00:50:01,286,158,-10,582,951
12/08/98,00:55:01,374,159,-10,580,951
12/08/98,01:00:01,360,160,-10,580,951
12/08/98,01:05:01,380,162,-10,580,951
12/08/98,01:10:01,369,162,-10,582,951
12/08/98,01:15:01,424,162,-10,582,951
12/08/98,01:20:01,374,171,-10,581,951
12/08/98,01:25:01,399,164,-10,581,951
12/08/98,01:30:01,443,174,-10,583,951
12/08/98,01:35:01,432,163,-10,585,951
12/08/98,01:40:01,407,163,-10,602,951
12/08/98,01:45:01,403,163,-10,607,951
12/08/98,01:50:01,406,174,-10,611,951
12/08/98,01:55:01,412,164,-10,592,951
12/08/98,02:00:01,396,164,-10,588,951
12/08/98,02:05:01,317,176,-9,596,951
12/08/98,02:10:01,388,164,-10,588,951
12/08/98,02:15:01,381,163,-9,586,951
12/08/98,02:20:01,347,162,-8,586,951
12/08/98,02:25:01,411,162,-8,584,951
12/08/98,02:30:01,459,162,-7,584,951
12/08/98,02:35:01,440,160,-7,582,951
12/08/98,02:40:01,380,159,-7,582,951
12/08/98,02:45:01,457,162,-7,580,951
12/08/98,02:50:01,409,162,-7,578,951
12/08/98,02:55:01,423,164,-7,576,951
12/08/98,03:00:01,369,164,-7,574,951
12/08/98,03:05:01,384,164,-6,573,951
12/08/98,03:10:01,438,163,-6,570,951
12/08/98,03:15:01,485,164,-7,568,951
12/08/98,03:20:01,472,164,-7,564,949
12/08/98,03:25:01,370,162,-6,564,949
12/08/98,03:30:01,410,163,-6,561,949
12/08/98,03:35:01,388,173,-6,561,949
12/08/98,03:40:01,446,171,-6,556,949
12/08/98,03:45:01,450,171,-6,564,949
12/08/98,03:50:01,411,176,-6,555,949
12/08/98,03:55:01,392,166,-6,550,949
12/08/98,04:00:01,395,167,-6,546,949
12/08/98,04:05:01,356,171,-6,546,949
12/08/98,04:10:01,421,171,-6,542,949
12/08/98,04:15:01,418,163,-6,538,949
12/08/98,04:20:01,366,169,-6,534,949
12/08/98,04:25:01,362,169,-6,534,949
12/08/98,04:30:01,384,171,-6,530,949
12/08/98,04:35:01,404,163,-6,528,949
12/08/98,04:40:01,405,159,-6,526,949
12/08/98,04:45:01,402,170,-5,524,951
12/08/98,04:50:01,393,170,-6,522,951
12/08/98,04:55:01,364,167,-6,516,951
12/08/98,05:00:01,439,167,-6,511,951
12/08/98,05:05:01,373,167,-6,511,951
12/08/98,05:10:01,402,167,-6,509,951
12/08/98,05:15:01,387,167,-6,507,951
12/08/98,05:20:01,378,167,-6,503,951
12/08/98,05:25:01,439,167,-6,499,951
12/08/98,05:30:01,393,167,-6,495,951
12/08/98,05:35:01,410,167,-6,493,951
12/08/98,05:40:01,400,177,-6,487,951
12/08/98,05:45:01,450,167,-6,445,951
12/08/98,05:50:01,392,167,-6,479,951
12/08/98,05:55:01,398,167,-6,475,951
12/08/98,06:00:01,349,167,-6,469,951
12/08/98,06:05:01,406,169,-6,465,951
12/08/98,06:10:01,411,172,-6,462,951
12/08/98,06:15:01,307,172,-6,458,951
12/08/98,06:20:01,393,172,-6,456,951
12/08/98,06:25:01,414,172,-7,454,951
12/08/98,06:30:01,374,172,-6,450,951
12/08/98,06:35:01,390,172,-7,444,951
12/08/98,06:40:01,387,172,-6,440,951
12/08/98,06:45:01,402,172,-7,435,951
12/08/98,06:50:01,340,172,-7,431,951
12/08/98,06:55:01,405,172,-7,427,951
12/08/98,07:00:01,312,172,-7,421,951
12/08/98,07:05:01,364,172,-7,417,951
12/08/98,07:10:01,348,182,-7,413,951
12/08/98,07:15:01,391,172,-7,409,951
12/08/98,07:20:01,379,172,-7,400,951
12/08/98,07:25:01,342,172,-8,394,951
12/08/98,07:30:01,314,172,-7,390,951
12/08/98,07:35:01,374,182,-8,386,951
12/08/98,07:40:01,366,183,-8,379,951
12/08/98,07:45:01,370,183,-8,373,951
12/08/98,07:50:01,351,183,-8,369,951
12/08/98,07:55:01,346,183,-9,363,951
12/08/98,08:00:01,352,173,-9,359,951
12/08/98,08:05:01,341,173,-9,353,951
12/08/98,08:10:01,364,173,-9,349,951
12/08/98,08:15:01,342,172,-8,345,951
12/08/98,08:20:01,312,172,-8,340,951
12/08/98,08:25:01,336,172,-8,333,951
12/08/98,08:30:01,363,172,-8,329,951
12/08/98,08:35:01,375,182,-8,325,951
12/08/98,08:40:01,324,182,-8,318,951
12/08/98,08:45:01,399,179,-9,314,951
12/08/98,08:50:01,406,179,-8,309,951
12/08/98,08:55:01,385,179,-9,303,951
12/08/98,09:00:01,380,179,-9,299,951
12/08/98,09:05:01,331,180,-9,301,951
12/08/98,09:10:01,362,170,-9,233,951
12/08/98,09:15:01,335,170,-10,277,951
12/08/98,09:20:01,312,182,-9,204,951
12/08/98,09:25:01,366,171,-9,186,951
12/08/98,09:30:01,335,171,-9,91,951
12/08/98,09:35:01,315,171,-10,62,951
12/08/98,09:40:01,386,171,-10,63,951
12/08/98,09:45:01,371,181,-11,65,951
12/08/98,09:50:01,311,171,-10,63,951
12/08/98,09:55:01,337,171,-10,213,951
12/08/98,10:00:01,288,172,-9,255,951
12/08/98,10:05:01,320,162,-9,139,951
12/08/98,10:10:01,310,162,-9,255,951
12/08/98,10:15:01,288,162,-10,159,951
12/08/98,10:20:01,263,162,-10,147,951
12/08/98,10:25:01,333,162,-10,148,951
12/08/98,10:30:01,267,162,-10,232,951
12/08/98,10:35:01,362,162,-9,226,951
12/08/98,10:40:01,245,174,-9,222,951
12/08/98,10:45:01,271,163,-10,191,951
12/08/98,10:50:01,284,165,-10,120,951
12/08/98,10:55:01,249,164,-11,55,951
12/08/98,11:00:01,299,175,-11,71,951
12/08/98,11:05:01,285,164,-11,60,951
12/08/98,11:10:01,302,164,-11,79,951
12/08/98,11:15:01,272,164,-11,172,951
12/08/98,11:20:01,239,163,-10,228,951
12/08/98,11:25:01,269,173,-10,209,951
12/08/98,11:30:01,295,173,-10,203,951
12/08/98,11:35:01,272,163,-10,201,951
12/08/98,11:40:01,270,173,-10,201,951
12/08/98,11:45:01,287,171,-10,209,951
12/08/98,11:50:01,332,161,-10,202,951
12/08/98,11:55:01,332,172,-10,200,951
12/08/98,12:00:01,298,169,-10,198,951
12/08/98,12:05:01,295,169,-10,190,951
12/08/98,12:10:01,273,179,-11,186,951
12/08/98,12:15:01,296,179,-11,186,951
12/08/98,12:20:01,262,167,-11,182,951
12/08/98,12:25:01,250,168,-12,180,951
12/08/98,12:30:01,265,170,-11,182,951
12/08/98,12:35:01,252,170,-12,182,951
12/08/98,12:40:01,270,180,-12,180,951
12/08/98,12:45:01,302,180,-12,180,951
12/08/98,12:50:01,270,180,-12,180,951
12/08/98,12:55:01,330,180,-12,178,951
12/08/98,13:00:01,266,180,-12,176,951
12/08/98,13:05:01,214,180,-12,176,951
12/08/98,13:10:01,230,178,-12,176,951
12/08/98,13:15:01,234,167,-12,174,951
12/08/98,13:20:01,255,167,-12,174,951
12/08/98,13:25:01,271,167,-12,174,951
12/08/98,13:30:01,275,167,-12,174,951
12/08/98,13:35:01,237,167,-12,174,951
12/08/98,13:40:01,233,166,-12,172,951
12/08/98,13:45:01,196,172,-12,176,951
12/08/98,13:50:01,224,172,-12,174,951
12/08/98,13:55:01,242,176,-12,176,951
12/08/98,14:00:01,179,165,-12,178,951
12/08/98,14:05:01,250,177,-12,180,951
12/08/98,14:10:01,250,177,-12,182,951
12/08/98,14:15:01,196,177,-12,182,951
12/08/98,14:20:01,210,177,-12,186,951
12/08/98,14:25:01,152,177,-12,186,951
12/08/98,14:30:01,177,159,-12,183,951
12/08/98,14:35:01,226,171,-12,191,951
12/08/98,14:40:01,210,183,-12,193,951
12/08/98,14:45:01,181,170,-12,197,951
12/08/98,14:50:01,230,180,-12,201,951
12/08/98,14:55:01,196,182,-12,203,951
12/08/98,15:00:01,174,175,-12,205,951
12/08/98,15:05:01,212,175,-12,209,951
12/08/98,15:10:01,206,176,-12,213,951
12/08/98,15:15:01,174,176,-12,215,951
12/08/98,15:20:01,122,166,-12,219,951
12/08/98,15:25:01,137,180,-13,221,951
12/08/98,15:30:01,143,179,-12,227,951
12/08/98,15:35:01,134,179,-13,229,951
12/08/98,15:40:01,147,179,-12,233,951
12/08/98,15:45:01,171,181,-12,237,951
12/08/98,15:50:01,138,167,-12,241,951
12/08/98,15:55:01,158,176,-12,245,951
12/08/98,16:00:01,162,177,-12,249,951
12/08/98,16:05:01,166,166,-12,251,951
12/08/98,16:10:01,151,182,-12,255,951
12/08/98,16:15:01,121,162,-12,257,951
12/08/98,16:20:01,148,162,-12,263,951
12/08/98,16:25:01,117,162,-12,267,951
12/08/98,16:30:01,151,173,-12,269,951
12/08/98,16:35:01,185,177,-12,273,951
12/08/98,16:40:01,123,180,-12,275,951
12/08/98,16:45:01,180,167,-12,280,951
12/08/98,16:50:01,176,170,-12,284,951
12/08/98,16:55:01,169,170,-12,286,951
12/08/98,17:00:01,181,181,-12,290,951
12/08/98,17:05:01,178,180,-12,294,951
12/08/98,17:10:01,168,178,-12,296,951
12/08/98,17:15:01,170,178,-12,300,951
12/08/98,17:20:01,166,172,-12,302,951
12/08/98,17:25:01,147,183,-12,304,951
12/08/98,17:30:01,151,179,-12,308,951
12/08/98,17:35:01,165,179,-12,312,951
12/08/98,17:40:01,182,179,-12,314,951
12/08/98,17:45:01,135,179,-12,320,951
12/08/98,17:50:01,123,173,-12,324,951
12/08/98,17:55:01,168,173,-12,330,951
12/08/98,18:00:01,140,178,-12,332,951
12/08/98,18:05:01,152,178,-12,336,951
12/08/98,18:10:01,115,178,-12,351,951
12/08/98,18:15:01,112,178,-12,420,951
12/08/98,18:20:01,106,178,-12,190,951
12/08/98,18:25:01,104,179,-12,326,951
12/08/98,18:30:01,100,179,-12,361,951
12/08/98,18:35:01,126,177,-12,358,951
12/08/98,18:40:01,143,169,-12,367,951
12/08/98,18:45:01,131,179,-12,358,951
12/08/98,18:50:01,126,179,-12,360,951
12/08/98,18:55:01,131,180,-12,362,951
12/08/98,19:00:01,133,180,-12,362,951
12/08/98,19:05:01,108,178,-12,366,951
12/08/98,19:10:01,106,181,-12,368,951
12/08/98,19:15:01,115,184,-12,372,951
12/08/98,19:20:01,100,180,-12,374,951
12/08/98,19:25:01,114,179,-12,376,951
12/08/98,19:30:01,123,177,-12,380,951
12/08/98,19:35:01,99,180,-12,382,951
12/08/98,19:40:01,94,175,-12,384,951
12/08/98,19:45:01,109,167,-12,386,951
12/08/98,19:50:01,84,191,-12,388,951
12/08/98,19:55:01,86,180,-12,391,951
12/08/98,20:00:01,95,180,-12,392,951
12/08/98,20:05:01,75,180,-12,394,951
12/08/98,20:10:01,80,179,-12,393,951
12/08/98,20:15:01,71,186,-12,394,951
12/08/98,20:20:01,115,174,-12,398,951
12/08/98,20:25:01,111,177,-12,398,951
12/08/98,20:30:01,93,160,-12,399,951
12/08/98,20:35:01,125,167,-11,402,951
12/08/98,20:40:01,110,157,-11,400,951
12/08/98,20:45:01,103,174,-11,398,951
12/08/98,20:50:01,92,174,-11,401,951
12/08/98,20:55:01,75,163,-11,403,951
12/08/98,21:00:01,79,177,-11,405,951
12/08/98,21:05:01,68,166,-11,409,951
12/08/98,21:10:01,69,186,-11,410,951
12/08/98,21:15:01,27,173,-11,415,951
12/08/98,21:20:01,40,165,-11,421,951
12/08/98,21:25:01,77,184,-11,424,951
12/08/98,21:30:01,64,187,-11,427,951
12/08/98,21:35:01,58,178,-11,434,951
12/08/98,21:40:01,73,172,-11,436,951
12/08/98,21:45:01,62,171,-11,442,951
12/08/98,21:50:01,65,178,-11,445,951
12/08/98,21:55:01,56,164,-11,450,951
12/08/98,22:00:01,45,147,-11,457,951
12/08/98,22:05:01,73,190,-11,459,951
12/08/98,22:10:01,64,185,-11,465,951
12/08/98,22:15:01,75,185,-11,468,951
12/08/98,22:20:01,71,186,-11,474,951
12/08/98,22:25:01,62,211,-11,478,951
12/08/98,22:30:01,91,182,-11,483,951
12/08/98,22:35:01,96,182,-11,485,951
12/08/98,22:40:01,75,185,-11,491,951
12/08/98,22:45:01,45,161,-11,497,951
12/08/98,22:50:01,66,187,-11,501,951
12/08/98,22:55:01,54,177,-11,506,951
12/08/98,23:00:01,65,182,-11,509,951
12/08/98,23:05:01,56,197,-10,513,951
12/08/98,23:10:01,68,183,-10,518,951
12/08/98,23:15:01,62,182,-10,522,951
12/08/98,23:20:01,60,187,-10,527,951
12/08/98,23:25:01,68,208,-10,531,951
12/08/98,23:30:01,62,192,-10,536,951
12/08/98,23:35:01,94,188,-10,540,951
12/08/98,23:40:01,65,190,-10,543,951
12/08/98,23:45:01,40,191,-10,548,951
12/08/98,23:50:01,26,188,-10,552,951
12/08/98,23:55:01,39,179,-10,556,951
12/09/98,00:00:01,25,190,-10,558,951
